When you browse on this site, cookies collect data to enhance your experience and personalize the content and advertising you see.
Visit our Privacy Policy to learn more. By continuing to use the site, you agree to this use of cookies and data.
  • In Hungary
  • List of Countries
  • For 7 days
  • Water Temperature
  • Weather Map
  • News
  • Weather Widgets
  • user-avatar
    Login

    Hourly Weather Borger

    Today, 25 August, Sunday

    Time Temperature Precipitation Wind Pressure Humidity
    00:00 +18°C° 0 mm 3 mps 763 mmHg 77%
    01:00 +18°C° 0 mm 3 mps 763 mmHg 77%
    02:00 +17°C° 0 mm 2 mps 763 mmHg 78%
    03:00 +17°C° 0 mm 2 mps 763 mmHg 78%
    04:00 +18°C° 0 mm 2 mps 762 mmHg 79%
    05:00 +18°C° 0 mm 2 mps 762 mmHg 80%
    06:00 +18°C° 0 mm 2 mps 762 mmHg 81%
    07:00 +21°C° 0 mm 2 mps 763 mmHg 76%
    08:00 +24°C° 0 mm 2 mps 763 mmHg 70%
    09:00 +26°C° 0 mm 2 mps 763 mmHg 64%
    10:00 +27°C° 0 mm 2 mps 763 mmHg 60%
    11:00 +28°C° 0 mm 2 mps 763 mmHg 56%
    12:00 +30°C° 0 mm 2 mps 762 mmHg 52%
    13:00 +30°C° 0 mm 2 mps 762 mmHg 50%
    14:00 +30°C° 0 mm 2 mps 762 mmHg 49%
    15:00 +30°C° 0 mm 1 mps 762 mmHg 47%
    16:00 +29°C° 0 mm 2 mps 762 mmHg 55%
    17:00 +27°C° 0 mm 2 mps 762 mmHg 62%
    18:00 +26°C° 0 mm 3 mps 762 mmHg 70%
    19:00 +25°C° 0 mm 3 mps 762 mmHg 73%
    20:00 +22°C° 0 mm 3 mps 762 mmHg 76%
    21:00 +21°C° 0 mm 3 mps 763 mmHg 80%
    22:00 +21°C° 0 mm 3 mps 763 mmHg 81%
    23:00 +20°C° 0 mm 2 mps 762 mmHg 82%

    Tomorrow, 26 August, Monday

    Time Temperature Precipitation Wind Pressure Humidity
    00:00 +20°C° 0 mm 2 mps 762 mmHg 83%
    01:00 +20°C° 0 mm 2 mps 762 mmHg 85%
    02:00 +20°C° 0 mm 2 mps 762 mmHg 86%
    03:00 +19°C° 0 mm 2 mps 762 mmHg 87%
    04:00 +20°C° 0 mm 2 mps 762 mmHg 87%
    05:00 +20°C° 0 mm 2 mps 762 mmHg 87%
    06:00 +21°C° 0 mm 2 mps 762 mmHg 87%
    07:00 +23°C° 0 mm 2 mps 762 mmHg 81%
    08:00 +25°C° 0 mm 2 mps 762 mmHg 75%
    09:00 +27°C° 0 mm 2 mps 762 mmHg 69%
    10:00 +28°C° 0 mm 2 mps 762 mmHg 65%
    11:00 +29°C° 0 mm 2 mps 762 mmHg 62%
    12:00 +30°C° 0 mm 2 mps 762 mmHg 58%
    13:00 +30°C° 0.3 mm 2 mps 761 mmHg 59%
    14:00 +30°C° 0.3 mm 2 mps 761 mmHg 59%
    15:00 +30°C° 0.3 mm 2 mps 761 mmHg 59%
    16:00 +29°C° 0.5 mm 2 mps 761 mmHg 67%
    17:00 +27°C° 0.5 mm 3 mps 761 mmHg 76%
    18:00 +25°C° 0.5 mm 3 mps 760 mmHg 84%
    19:00 +24°C° 0.2 mm 3 mps 761 mmHg 85%
    20:00 +24°C° 0.2 mm 2 mps 761 mmHg 87%
    21:00 +23°C° 0.2 mm 2 mps 761 mmHg 88%
    22:00 +23°C° 0 mm 2 mps 761 mmHg 88%
    23:00 +21°C° 0 mm 2 mps 761 mmHg 89%

    Day after tomorrow, 27 August, Tuesday

    Time Temperature Precipitation Wind Pressure Humidity
    00:00 +22°C° 0 mm 1 mps 760 mmHg 89%
    01:00 +22°C° 0 mm 1 mps 760 mmHg 89%
    02:00 +22°C° 0 mm 1 mps 760 mmHg 89%
    03:00 +21°C° 0 mm 1 mps 760 mmHg 89%
    04:00 +22°C° 0 mm 1 mps 760 mmHg 88%
    05:00 +23°C° 0 mm 1 mps 760 mmHg 86%
    06:00 +23°C° 0 mm 1 mps 760 mmHg 85%
    07:00 +23°C° 0 mm 0 mps 760 mmHg 79%
    08:00 +24°C° 0 mm 0 mps 760 mmHg 72%
    09:00 +26°C° 0 mm 0 mps 760 mmHg 66%
    10:00 +27°C° 0 mm 0 mps 760 mmHg 62%
    11:00 +29°C° 0 mm 0 mps 760 mmHg 57%
    12:00 +30°C° 0 mm 0 mps 760 mmHg 53%
    13:00 +30°C° 0.2 mm 0 mps 760 mmHg 53%
    14:00 +32°C° 0.2 mm 1 mps 760 mmHg 52%
    15:00 +31°C° 0.2 mm 1 mps 759 mmHg 52%
    16:00 +30°C° 0.2 mm 2 mps 759 mmHg 61%
    17:00 +28°C° 0.2 mm 2 mps 759 mmHg 70%
    18:00 +26°C° 0.2 mm 3 mps 759 mmHg 79%
    19:00 +25°C° 0.1 mm 3 mps 760 mmHg 81%
    20:00 +24°C° 0.1 mm 3 mps 760 mmHg 84%
    21:00 +23°C° 0.1 mm 2 mps 760 mmHg 86%
    22:00 +23°C° 0 mm 2 mps 760 mmHg 87%
    23:00 +21°C° 0 mm 2 mps 759 mmHg 87%

    28 August, Wednesday

    Time Temperature Precipitation Wind Pressure Humidity
    00:00 +21°C° 0 mm 2 mps 759 mmHg 88%
    01:00 +22°C° 0 mm 1 mps 759 mmHg 88%
    02:00 +22°C° 0 mm 1 mps 759 mmHg 89%
    03:00 +22°C° 0 mm 1 mps 759 mmHg 90%
    04:00 +22°C° 0 mm 1 mps 759 mmHg 88%
    05:00 +23°C° 0 mm 1 mps 758 mmHg 86%
    06:00 +21°C° 0 mm 0 mps 758 mmHg 85%
    07:00 +25°C° 0 mm 1 mps 758 mmHg 79%
    08:00 +26°C° 0 mm 1 mps 758 mmHg 73%
    09:00 +28°C° 0 mm 1 mps 758 mmHg 67%
    10:00 +29°C° 0 mm 1 mps 758 mmHg 63%
    11:00 +30°C° 0 mm 1 mps 758 mmHg 58%
    12:00 +31°C° 0 mm 2 mps 757 mmHg 54%
    13:00 +31°C° 0.1 mm 2 mps 757 mmHg 54%
    14:00 +31°C° 0.1 mm 1 mps 757 mmHg 55%
    15:00 +31°C° 0.1 mm 1 mps 757 mmHg 56%
    16:00 +30°C° 0 mm 1 mps 756 mmHg 60%
    17:00 +28°C° 0 mm 1 mps 756 mmHg 64%
    18:00 +27°C° 0 mm 1 mps 756 mmHg 68%
    19:00 +26°C° 0 mm 1 mps 756 mmHg 68%
    20:00 +25°C° 0 mm 1 mps 756 mmHg 68%
    21:00 +24°C° 0 mm 1 mps 756 mmHg 68%
    22:00 +24°C° 0.1 mm 1 mps 756 mmHg 70%
    23:00 +23°C° 0.1 mm 2 mps 756 mmHg 71%

    29 August, Thursday

    Time Temperature Precipitation Wind Pressure Humidity
    00:00 +23°C° 0.1 mm 2 mps 756 mmHg 73%
    01:00 +21°C° 0.4 mm 2 mps 755 mmHg 78%
    02:00 +21°C° 0.4 mm 2 mps 755 mmHg 82%
    03:00 +20°C° 0.4 mm 2 mps 755 mmHg 87%
    04:00 +20°C° 0 mm 2 mps 755 mmHg 87%
    05:00 +20°C° 0 mm 2 mps 755 mmHg 86%
    06:00 +20°C° 0 mm 2 mps 755 mmHg 85%
    07:00 +21°C° 0.1 mm 3 mps 756 mmHg 84%
    08:00 +21°C° 0.1 mm 4 mps 756 mmHg 84%
    09:00 +21°C° 0.1 mm 4 mps 757 mmHg 83%
    10:00 +22°C° 0 mm 4 mps 757 mmHg 79%
    11:00 +23°C° 0 mm 5 mps 757 mmHg 75%
    12:00 +25°C° 0 mm 5 mps 758 mmHg 70%
    13:00 +23°C° 0.1 mm 6 mps 758 mmHg 70%
    14:00 +23°C° 0.1 mm 6 mps 758 mmHg 70%
    15:00 +22°C° 0.1 mm 6 mps 759 mmHg 70%
    16:00 +21°C° 0 mm 6 mps 759 mmHg 72%
    17:00 +19°C° 0 mm 5 mps 759 mmHg 74%
    18:00 +18°C° 0 mm 4 mps 760 mmHg 76%
    19:00 +15°C° 0 mm 4 mps 760 mmHg 77%
    20:00 +14°C° 0 mm 3 mps 761 mmHg 78%
    21:00 +13°C° 0 mm 3 mps 762 mmHg 80%
    22:00 +13°C° 0 mm 3 mps 762 mmHg 80%
    23:00 +12°C° 0 mm 3 mps 762 mmHg 80%

    30 August, Friday

    Time Temperature Precipitation Wind Pressure Humidity
    00:00 +12°C° 0 mm 3 mps 762 mmHg 81%
    01:00 +12°C° 0 mm 3 mps 762 mmHg 80%
    02:00 +12°C° 0 mm 3 mps 762 mmHg 80%
    03:00 +11°C° 0 mm 3 mps 763 mmHg 80%
    04:00 +12°C° 0 mm 3 mps 763 mmHg 80%
    05:00 +12°C° 0 mm 3 mps 763 mmHg 80%
    06:00 +13°C° 0 mm 3 mps 763 mmHg 80%
    07:00 +14°C° 0 mm 4 mps 763 mmHg 75%
    08:00 +17°C° 0 mm 4 mps 764 mmHg 70%
    09:00 +19°C° 0 mm 4 mps 764 mmHg 65%
    10:00 +20°C° 0 mm 4 mps 764 mmHg 62%
    11:00 +21°C° 0 mm 5 mps 764 mmHg 60%
    12:00 +21°C° 0 mm 5 mps 763 mmHg 58%
    13:00 +21°C° 0 mm 4 mps 763 mmHg 59%
    14:00 +21°C° 0 mm 4 mps 763 mmHg 60%
    15:00 +21°C° 0 mm 3 mps 763 mmHg 60%
    16:00 +20°C° 0 mm 3 mps 763 mmHg 65%
    17:00 +19°C° 0 mm 2 mps 763 mmHg 70%
    18:00 +19°C° 0 mm 1 mps 763 mmHg 75%
    19:00 +18°C° 0 mm 1 mps 763 mmHg 79%
    20:00 +16°C° 0 mm 1 mps 763 mmHg 82%
    21:00 +15°C° 0 mm 1 mps 763 mmHg 86%
    22:00 +14°C° 0 mm 1 mps 763 mmHg 87%
    23:00 +14°C° 0 mm 1 mps 762 mmHg 88%
    Show more